SL-8 R/B

Satellite information

Favourite Embed

Satellite Type and Status

ROCKET BODYIN ORBIT

Key statistics

Satellite SL-8 R/B at a glance.

Uptime

6669

Days in orbit

Revolutions

≈ 13.8

Per day

Orbit

LEO

Low Earth Orbit

Inclination

83.0

Latest

Satellite identification and parameters

Extended collection of information and parameters for SL-8 R/B.

Object identification

Identified? True

Debris? False

Object name: SL-8 R/B

International designator: 2007-038B

Object number (NORAD): 32053

Object ID (CCSDS): 32053

Country: COMMONWEALTH OF INDEPENDENT STATES (CIS)

Current information (Y/N): Y

RCS size: LARGE

Orbital parameters

Period: 104.609 minutes

Inclination: 82.978 deg

SMA: 7354.259 km

Apoapsis: 995.827 km

Periapsis: 956.422 km

RAAN: 331.0422 deg

Eccentricy: 0.00267908

Argument of periapsis: 15.8735 deg

Mean anomaly: 57.6526 deg

Mean motion: 13.76557467 rev/day

Mean motion (dot): 0.00000186 rev/day2

B* drag term: 0.00017383716 1/REarth

Two-line elements (TLE)

Creation date: Dec. 12, 2025, 10:14 a.m.

Reference frame: TEME

Reference center: EARTH

Epoch: Dec. 12, 2025, 2:28 a.m. UTC

TLE line 0: 0 SL-8 R/B

TLE line 1: 1 32053U 07038B 25346.10278500 .00000186 00000-0 17384-3 0 9995

TLE line 2: 2 32053 82.9780 331.0422 0026791 15.8735 57.6526 13.76557467916916

Live tracking on map

Real-time ground track for satellite SL-8 R/B.

In-orbit conjunctions

A list of the most updated potential collisions computed for object SL-8 R/B.

Target Orbit TCA Probability of collision Miss distance Type
FENGYUN 1C DEB SSO 2025-04-05 03:48:15 0.000890086 154.0 (m) DEBRIS
COSMOS 1275 DEB LEO 2025-01-16 11:44:34 0.001025195 48.0 (m) DEBRIS

Associated space launch

Navigation satellite providing location information for the Tsiklon-B navigation system

SL-8 R/B was lifted into orbit during the mission ‘Kosmos-3M | Parus 97’, on board a Kosmos-3M space rocket.

The launch took place on Sept. 11, 2007, 1:05 p.m. from 132/1 (132L).

For more information about the launch, click the button.

Launch to space Kosmos-3M | Parus 97
Kosmos-3M | Parus 97

Agency: N/A

Status: Launch Successful

Launch date: Sept. 11, 2007, 1:05 p.m. UTC

Rocket: Kosmos-3M

Launch pad: 132/1 (132L)

Location: Plesetsk Cosmodrome, Russian Federation

...

Latest news about this satellite

There are no fresh news available about this satellite. Check back as we update our databases every day.


Newsletter sign-up

Weekly statistics, charts and insights to help you stay on top of the space industry.